ATLAS 5 CENTAUR DEB, 44009

Orbit data source: Space-Track

ATLAS 5 CENTAUR DEB, 44009 is space debris in HEO originally from a launch on Wed, 17 Sep 2014 UTC launched from the Air Force Eastern Test Range (AFETR). Debris objects in space refer to the collection of defunct objects orbiting the Earth. Examples of debris include non-operational satellites, rocket bodies, and fragments generated from explosions, collisions, or faulty payload assembly.

Loading next visibility...
Identifier
44009, 2014-055BQ
Orbit
HEO
Country
Flag of USUS
Related business
Flag of USUnited Launch Alliance/Lockheed Martin (US)
Manufacturer
Unknown
Mission
Spacecraft
Bus & Motor
Unknown
Mass
Unknown
Launch date (UTC)
2014-09-17 (12 years ago)
Launch vehicle
Unknown
Launch site
Air Force Eastern Test Range (AFETR)
Object type
Payload
Rocket body
Debris
Shape & HBR
Unknown shape, 1.1 m
Radar Cross Section
Small (<0.1 m²)

Expand to show TLE details & history
Last TLE update: 2 days ago

TLE from 2 days ago
0 ATLAS 5 CENTAUR DEB
1 44009U 14055BQ  26118.15529492 -.00000030  00000-0  00000-0 0  9991
2 44009  20.8881 112.9789 4985187 223.6360  83.9401  1.91639007 52993
Epoch: 2026-04-28T03:43Z
TLE epoch observation values (Epoch: 2026-04-28T03:43:37.481Z)
Latitude
-0.00007°
Longitude
-159.08714°
Altitude
25,776.423 km
Speed
3.199 km/s
True Right ascension
07h 31m 48s
True Declination
0° 00' 00"
Sunlit
Object was in daylight at epoch
Visualization orbit readout
Latitude
Unknown
Longitude
Unknown
Altitude
Unknown
Speed
Unknown
Apparent Right ascension
Unknown
Apparent Declination
Unknown
Sunlit
N/A
Visualization observer readout
Local Sidereal Time
09:31:37
Azimuth
Unknown
Elevation
Unknown
Doppler factor
Unknown
Orbital elements
Apogee altitude
34,652.353 km
Perigee altitude
7,352.772 km
Semi-major axis
27,380.699 km
Eccentricity
0.49852
Inclination
20.8881°
RAAN
112.9789°
Arg. of periapsis
223.636°
True anomaly
136.38945°
Mean anomaly
83.9401°
Eccentric anomaly
110.66531°
Mean motion
0.47905 °/min
Orbital period
751.5 mins
BSTAR
0
Loading maneuver chart data...
Computing Atmospheric mass density...

Documentation

Showing up to 5 results
|